[[{"header":{"parameterUnit":"m.s-1","parameterCategory":1,"la1":30.2991,"la2":30.254,"lo1":-89.0895,"lo2":-89.0444,"dy":0.0017,"dx":0.0017,"nx":28,"ny":28,"refTime":"2024-06-24T09:00:00:Z","depth":0,"parameterNumber":2,"parameterNumberName":"U-component_of_WINDS"},"data":[0,0,0,0,0,0,0,0,0,0,0,0,0,0,0,0,0,0,0,0,0,0,0,0,0,0,0,0,0,0,0,0,0,0,0,0,0,0,0,0,0,0,0,0,0,0,0,0,0,0,0,0,0,0,0,0,0,0,2.5951,2.5951,0,2.5985,2.5986,2.5986,2.5918,2.5916,2.5914,2.5912,2.5948,2.5951,2.5954,0,0,0,0,0,0,0,0,0,0,0,0,0,2.5828,2.583,2.5951,2.5951,2.5952,2.5985,2.5986,2.5986,2.5919,2.5916,2.5913,2.5911,2.5947,2.5951,2.5955,0,0,0,0,0,0,0,0,0,0,0,0,0,2.5874,2.5831,2.5951,2.5922,2.592,2.5985,2.5986,2.5986,2.5919,2.5916,2.5913,2.591,2.5946,2.5951,2.5955,2.605,0,0,2.5969,2.5971,0,0,0,0,0,0,0,0,2.5871,2.5878,2.5926,2.5924,2.5922,2.5944,2.5955,2.6008,2.592,2.592,2.5912,2.5908,2.595,2.5954,2.5968,2.6052,2.6053,2.597,2.5972,2.5974,2.5976,0,0,0,0,0,0,0,2.5868,2.5876,2.5965,2.5927,2.5924,2.5908,2.5911,2.5965,2.5953,2.592,2.5915,2.592,2.5948,2.5963,2.5968,2.6054,2.5969,2.5973,2.5976,2.5978,2.6214,2.6218,0,0,0,0,0,0,2.5868,2.5874,2.5963,2.5966,2.5888,2.5913,2.5916,2.594,2.5952,2.5951,2.5922,2.5916,2.5957,2.5963,2.5969,2.6078,2.5974,2.5979,2.5981,2.6211,2.6215,2.6219,0,0,0,0,0,0,2.5866,2.5877,2.5962,2.5919,2.5928,2.5918,2.5946,2.5943,2.5958,2.5954,2.5952,2.594,2.5955,2.5963,2.6029,2.6078,2.5981,2.5985,2.6207,2.6212,2.6217,2.6299,0,0,0,0,0,0,2.5863,2.5877,2.5913,2.592,2.5931,2.6022,2.595,2.5946,2.5966,2.5958,2.597,2.5969,2.5953,2.6023,2.6034,2.6083,2.5988,2.6202,2.6209,2.6215,2.6292,2.6306,2.6319,0,0,0,0,0,2.5859,2.5935,2.5915,2.5926,2.5975,2.6025,2.6031,2.601,2.597,2.6006,2.6003,2.5969,2.6072,2.603,2.6042,2.6093,2.6199,2.6207,2.6215,2.6286,2.6303,2.6318,0,0,0,0,0,0,2.5935,2.5936,2.5913,2.5994,2.601,2.6014,2.6058,2.603,2.6058,2.605,2.6023,2.6027,2.6098,2.6103,2.6057,2.6184,2.6128,2.6139,2.6178,2.6195,2.6209,2.6205,2.5992,0,0,0,0,0,2.5961,2.6001,2.6,2.6072,2.6081,2.6068,2.6089,2.6072,2.6087,2.6094,2.6096,2.6113,2.6148,2.6172,2.6205,2.6293,2.6293,2.6334,2.6347,2.6358,2.6367,2.6411,2.6428,2.6245,2.6245,2.6245,0,0,2.6016,2.6021,2.6048,2.6087,2.6097,2.6139,2.6074,2.6122,2.6152,2.6101,2.6163,2.6166,2.6182,2.6259,2.6293,2.6265,2.6418,2.6368,2.6377,2.638,2.6421,2.6438,2.6454,2.625,2.6249,2.6249,0,0,2.6136,2.6145,2.6204,2.6215,2.6231,2.6222,2.6236,2.6244,2.6243,2.6305,2.6267,2.6303,2.6366,2.6378,2.6393,2.6516,2.6485,2.6528,2.6598,2.6641,2.6656,2.6668,2.671,2.6725,2.6538,2.6538,2.6538,0,2.6202,2.6262,2.6239,2.6288,2.6305,2.626,2.6319,2.6331,2.6358,2.637,2.6339,2.6415,2.6423,2.6501,2.653,2.6545,2.6559,2.6526,2.6655,2.6668,2.6679,2.6718,2.6734,2.6543,2.6542,2.6542,2.6541,0,2.6341,2.6384,2.643,2.6455,2.6478,2.6532,2.6516,2.6542,2.6522,2.6516,2.6579,2.6588,2.662,2.6638,2.662,2.6712,2.6694,2.666,2.6603,2.6702,2.6738,2.6753,2.655,2.6548,2.6547,2.6545,0,0,2.651,2.6519,2.6537,2.6546,2.6559,2.6592,2.6644,2.6674,2.6696,2.6716,2.6757,2.6811,2.6778,2.6795,2.6778,2.6816,2.691,2.6777,2.6776,2.6799,2.701,2.7033,2.7051,2.689,2.6893,2.6895,2.7007,0,2.6626,2.6714,2.6693,2.678,2.6818,2.6775,2.682,2.6833,2.6829,2.686,2.6856,2.6893,2.6849,2.6858,2.6894,2.6891,2.6952,2.6883,2.6927,2.6929,2.6921,2.7071,2.7097,2.7202,2.7022,2.7024,2.7026,0,2.6774,2.6797,2.6887,2.6892,2.6907,2.6948,2.6973,2.7005,2.7018,2.7012,2.703,2.7005,2.7055,2.7,2.7068,2.7021,2.7038,2.704,2.7043,2.7044,2.6982,2.7074,2.7235,2.725,2.7048,2.7047,2.7045,0,2.6884,2.6939,2.6998,2.7008,2.7017,2.7046,2.7051,2.7061,2.708,2.7102,2.7114,2.7143,2.7158,2.7181,2.7164,2.7126,2.7234,2.7178,2.7229,2.723,2.7252,2.7251,2.7417,2.7268,2.7268,2.7268,2.7267,0,2.7015,2.7071,2.7048,2.7084,2.7145,2.7121,2.7182,2.7182,2.7192,2.7227,2.7193,2.7227,2.7204,2.7236,2.7224,2.728,2.7289,2.7284,2.728,2.7286,2.7286,2.7295,2.7286,2.7272,2.7271,2.727,2.7269,0,2.7148,2.7135,2.7196,2.7199,2.72,2.7245,2.7247,2.728,2.7274,2.7319,2.7328,2.7318,2.7353,2.7339,2.7378,2.737,2.7441,2.7429,2.7436,2.7432,2.7483,2.7478,2.7659,2.768,2.7521,2.7522,2.7523,0,2.7231,2.7272,2.7278,2.7299,2.7306,2.7341,2.7359,2.7337,2.7358,2.7376,2.7407,2.744,2.7464,2.7523,2.7519,2.7548,2.7534,2.7595,2.7538,2.7542,2.7532,2.7528,2.7531,2.7606,2.7608,2.761,2.7611,0,2.7379,2.7369,2.7397,2.7423,2.7446,2.7465,2.7482,2.7501,2.7479,2.7505,2.754,2.7559,2.7597,2.763,2.7655,2.766,2.7631,2.7629,2.7642,2.7647,2.7649,2.7646,2.7464,2.7625,2.7623,2.7622,2.7621,2.7621,2.7487,2.7521,2.7529,2.7561,2.7571,2.7587,2.7617,2.7614,2.7643,2.7671,2.7657,2.7698,2.7709,2.774,2.7748,2.7779,2.7755,2.7775,2.7779,2.7784,2.7789,2.7646,2.7784,2.7784,2.7784,2.7783,2.7783,0,2.763,2.7633,2.7663,2.7686,2.7711,2.7682,2.7698,2.772,2.7756,2.7769,2.7793,2.7833,2.7864,2.7862,2.789,2.7915,2.7902,2.7923,2.7919,2.792,2.7811,2.7795,2.7932,2.7932,2.7932,2.7932,2.7932,2.7932,2.7707,2.7762,2.7754,2.7813,2.7816,2.7855,2.7866,2.788,2.7889,2.7935,2.796,2.7958,2.7964,2.7992,2.8019,2.8017,2.8028,2.8053,2.8046,2.7943,2.7928,2.7914,2.7899,2.8056,2.8056,2.8153,2.8154,2.8155]},{"header":{"parameterUnit":"m.s-1","parameterCategory":1,"la1":30.2991,"la2":30.254,"lo1":-89.0895,"lo2":-89.0444,"dy":0.0017,"dx":0.0017,"nx":28,"ny":28,"refTime":"2024-06-24T09:00:00:Z","depth":0,"parameterNumber":3,"parameterNumberName":"V-component_of_WINDS"},"data":[0,0,0,0,0,0,0,0,0,0,0,0,0,0,0,0,0,0,0,0,0,0,0,0,0,0,0,0,0,0,0,0,0,0,0,0,0,0,0,0,0,0,0,0,0,0,0,0,0,0,0,0,0,0,0,0,0,0,2.4739,2.474,0,2.4867,2.4868,2.487,2.486,2.4858,2.4856,2.4855,2.4983,2.4988,2.4993,0,0,0,0,0,0,0,0,0,0,0,0,0,2.4482,2.4487,2.4738,2.474,2.4742,2.4866,2.4868,2.487,2.4861,2.4858,2.4856,2.4854,2.4981,2.4987,2.4993,0,0,0,0,0,0,0,0,0,0,0,0,0,2.46,2.4488,2.4738,2.4752,2.4755,2.4866,2.4868,2.487,2.4861,2.4858,2.4855,2.4853,2.4979,2.4986,2.4994,2.5099,0,0,2.5018,2.5021,0,0,0,0,0,0,0,0,2.4593,2.4609,2.4748,2.4751,2.4754,2.4845,2.4825,2.4947,2.4862,2.4821,2.4855,2.4851,2.4939,2.495,2.498,2.5105,2.5111,2.5019,2.5023,2.5027,2.5029,0,0,0,0,0,0,0,2.4585,2.4604,2.4789,2.475,2.4754,2.4751,2.4764,2.4848,2.4894,2.4824,2.4824,2.4839,2.494,2.4972,2.4983,2.5112,2.5018,2.5025,2.503,2.5033,2.5329,2.5332,0,0,0,0,0,0,2.4574,2.4597,2.4785,2.4793,2.4665,2.4758,2.4773,2.4818,2.4893,2.4902,2.4841,2.4838,2.4961,2.4974,2.4987,2.5114,2.5027,2.5034,2.5038,2.5326,2.5329,2.5333,0,0,0,0,0,0,2.4569,2.4591,2.478,2.4695,2.4719,2.4765,2.4816,2.4822,2.4855,2.4906,2.4914,2.4866,2.4959,2.4976,2.5071,2.5119,2.5037,2.5044,2.5322,2.5327,2.5331,2.537,0,0,0,0,0,0,2.4561,2.4589,2.463,2.4696,2.4723,2.4863,2.4819,2.4827,2.4869,2.4866,2.4932,2.494,2.4958,2.506,2.5079,2.5128,2.505,2.5318,2.5324,2.533,2.5365,2.5375,2.5385,0,0,0,0,0,2.4552,2.4636,2.4633,2.4655,2.4776,2.4866,2.4881,2.4901,2.4873,2.4914,2.4947,2.4938,2.511,2.507,2.5091,2.5143,2.5315,2.5322,2.5329,2.536,2.5373,2.5384,0,0,0,0,0,0,2.4574,2.4645,2.4642,2.4749,2.4802,2.4864,2.4917,2.4915,2.4975,2.497,2.4991,2.5006,2.5101,2.5132,2.5085,2.5248,2.5209,2.5221,2.5225,2.5238,2.5248,2.5238,2.5057,0,0,0,0,0,2.4591,2.4659,2.4717,2.4806,2.4833,2.487,2.491,2.4921,2.4975,2.4997,2.5037,2.5089,2.5155,2.5198,2.5262,2.5369,2.5382,2.5415,2.5425,2.5433,2.5443,2.5501,2.5516,2.5357,2.5356,2.5356,0,0,2.4627,2.4675,2.4716,2.4812,2.4853,2.4922,2.4889,2.4963,2.5014,2.5008,2.51,2.5131,2.5191,2.5292,2.5339,2.532,2.549,2.5442,2.5448,2.5454,2.551,2.5525,2.5538,2.5361,2.536,2.536,0,0,2.4729,2.4772,2.485,2.4893,2.4957,2.4981,2.5,2.5063,2.5084,2.5177,2.5173,2.5233,2.5347,2.5389,2.5426,2.5542,2.5536,2.5562,2.5614,2.5671,2.5683,2.5694,2.5735,2.575,2.5572,2.5572,2.5572,0,2.4765,2.487,2.4891,2.4966,2.5007,2.5006,2.5085,2.5125,2.5206,2.5234,2.5213,2.5355,2.5395,2.5505,2.5534,2.5564,2.5585,2.5555,2.568,2.5691,2.5702,2.5741,2.5756,2.5575,2.5574,2.5574,2.5574,0,2.4912,2.4984,2.504,2.5119,2.5167,2.5244,2.5274,2.532,2.5326,2.5353,2.5446,2.5495,2.5567,2.5594,2.5601,2.5706,2.5693,2.5675,2.5636,2.572,2.5757,2.5772,2.5579,2.5578,2.5577,2.5576,0,0,2.503,2.512,2.514,2.5176,2.5246,2.5302,2.5377,2.545,2.5488,2.5543,2.5607,2.5702,2.5687,2.5728,2.5739,2.5789,2.5877,2.5765,2.5767,2.5784,2.5994,2.6006,2.6023,2.5873,2.5876,2.5878,2.5989,0,2.5138,2.5274,2.5295,2.5414,2.548,2.5479,2.5545,2.5595,2.5621,2.568,2.5708,2.5776,2.5751,2.5775,2.5824,2.5856,2.5919,2.5848,2.5931,2.5934,2.5916,2.6043,2.6056,2.6158,2.6003,2.6006,2.6008,0,2.5283,2.5343,2.5469,2.553,2.5558,2.5617,2.5685,2.5742,2.5797,2.5812,2.5859,2.5864,2.5941,2.5898,2.6004,2.5955,2.599,2.6011,2.6015,2.6023,2.5976,2.6054,2.6191,2.6206,2.6031,2.6029,2.6027,0,2.5355,2.5468,2.5558,2.5589,2.5662,2.5703,2.5735,2.5788,2.583,2.5888,2.5915,2.5981,2.6017,2.6068,2.609,2.6057,2.6194,2.6154,2.6208,2.6208,2.6237,2.6234,2.6381,2.626,2.626,2.6259,2.6259,0,2.5474,2.5551,2.5592,2.5647,2.5733,2.5755,2.5838,2.5869,2.5916,2.5976,2.5979,2.6035,2.6061,2.6121,2.6138,2.6223,2.6239,2.6253,2.6257,2.6253,2.6251,2.6275,2.6269,2.6264,2.6263,2.6262,2.6261,0,2.557,2.5601,2.5698,2.5759,2.5777,2.5837,2.5889,2.5941,2.5967,2.6043,2.6062,2.6102,2.6172,2.6199,2.6285,2.6297,2.6394,2.6392,2.6376,2.6377,2.6429,2.6423,2.6596,2.662,2.6483,2.6485,2.6486,0,2.5643,2.5702,2.577,2.5811,2.5844,2.591,2.5953,2.5977,2.6021,2.6088,2.6132,2.6203,2.626,2.6372,2.6408,2.6473,2.6473,2.6529,2.6483,2.6476,2.6473,2.6469,2.6474,2.6537,2.6539,2.654,2.6541,0,2.5769,2.5781,2.5843,2.5911,2.5962,2.6017,2.6069,2.6102,2.6133,2.6182,2.6255,2.63,2.6387,2.6457,2.6524,2.6555,2.6553,2.6555,2.6571,2.6567,2.6555,2.6561,2.6398,2.6551,2.655,2.6549,2.6549,2.6548,2.5855,2.5908,2.5963,2.6032,2.6075,2.6124,2.6176,2.6209,2.627,2.6344,2.6353,2.6431,2.6483,2.6574,2.6608,2.6668,2.6653,2.6676,2.6682,2.6687,2.669,2.6546,2.668,2.668,2.6679,2.6679,2.6679,0,2.5981,2.6017,2.608,2.6154,2.6208,2.6202,2.626,2.6305,2.6374,2.6424,2.648,2.6563,2.663,2.6671,2.6738,2.6778,2.6779,2.6795,2.6792,2.6799,2.67,2.6679,2.6793,2.6793,2.6793,2.6793,2.6793,2.6793,2.6053,2.6141,2.616,2.6268,2.6303,2.638,2.6413,2.6458,2.6498,2.6591,2.6647,2.6673,2.672,2.679,2.6851,2.6861,2.6885,2.6903,2.6911,2.6818,2.6806,2.6795,2.6776,2.6908,2.6908,2.7005,2.7006,2.7007]}]]